Location: ???? ?????????
(44.3677°N, 135.2344°E)
Time: 09:32:55
(UTC+00:00)

Cosmos 1500 Rocket - Pass Details

Date: 19 May 2025
Orbit: 598 x 623 km, 82.5° (Epoch: 12 June)

Event Time Altitude Azimuth Distance (km) Brightness Sun altitude
Rises 14:42:42 0° 348° (NNW) 2,878 8.3 -25.7°
Reaches altitude 10° 14:44:56 10° 345° (NNW) 1,973 7.1 -25.7°
Enters shadow 14:48:43 56° 299° (WNW) 735 4.0 -25.7°
